Tracking 21612 objects as of 20-Oct-2020
HD Live streaming from Space Station
objects crossing your sky now

OPS 3148

Track OPS 3148 now!
OPS 3148 is classified as:


NORAD ID: 3889
Int'l Code: 1969-036A
Perigee: 31,939.3 km
Apogee: 39,597.5 km
Inclination: 9.2 °
Period: 1,434.8 minutes
Semi major axis: 42139 km
RCS: Unknown
Launch date: April 13, 1969
Source: United States (US)
Launch site: AIR FORCE EASTERN TEST RANGE (AFETR)
aabbcc
Your satellite tracking list
Your tracking list is empty




NASA's NSSDC Master Catalog

Two Line Element Set (TLE):
1 03889U 69036A   20179.00100543 0.00000000  00000-0  00000-0 0    07
2 03889   9.2262  60.2114 0908684 134.7837 233.0038  1.00362277    00
Source of the keplerian elements: McCants